{"data":{"norad_id":60425,"intl_designator":"2024-144A","name":"STARLINK-32250","alt_names":[],"object_type":"PAYLOAD","status":"ACTIVE","operator":null,"country":"US","launch_date":"2024-08-12","launch_site_code":"AFETR","launch_vehicle":null,"mission":null,"orbit_class":"UNKNOWN","rcs_meters":null,"size_class":null,"mass_kg":null,"dimensions":null,"purposes":["comms"],"wikipedia_slug":null,"has_3d_model":false,"image_url":null,"decayed_at":null,"tle_current":{"epoch":"2026-05-25T05:26:46.408128Z","epoch_age_seconds":55499,"freshness":"FRESH","line1":"1 60425U 24144A   26145.22692602  .00000953  00000+0  44294-4 0  9992","line2":"2 60425  53.1604 221.8897 0001134  73.3231 286.7894 15.30198766100127","mean_motion":15.30198766,"eccentricity":0.0001134,"inclination_deg":53.1604,"raan_deg":221.8897,"arg_perigee_deg":73.3231,"mean_anomaly_deg":286.7894,"bstar":4.4294e-5,"rev_number":10012,"period_min":94.105421595929,"perigee_km":474.44158338088,"apogee_km":475.99592446586,"semimajor_km":6853.3557539234,"source":"CELESTRAK","updated_at":"2026-05-25T13:38:19.271973Z"}}}